This demonstration page uses our WeatherBlox Daily Observations layout. Learn more.

Left ArrowRight Arrow

39.29038, -76.61219

Hourly Observations for June 11, 2020

Temp ( °F °C ) Dew Point ( °F °C ) Humidity (%) Winds ( mph kmh ) Pressure ( in mb ) Visibility ( mi km ) Precip ( " mm )
12:45 am 00:45 Cloudy with Light Rain 78 25.6 74 23.3 87 87 VRB 7 11 29.91 1013 7 11 0.08 2.03
12:54 am 00:54 Cloudy with Light Rain 78 25.6 74 23.3 87 87 S 6 9 29.92 1013 6 10 0.09 2.29
1:54 am 01:54 Cloudy with Light Rain 77 25 73 22.8 88 88 SSW 7 11 29.93 1013 7 11 0.03 0.76
2:54 am 02:54 Mostly Cloudy with Light Rain 76 24.4 73 22.8 91 91 VRB 7 11 29.91 1013 9 14 0.05 1.27
3:54 am 03:54 Cloudy 76 24.4 72 22.2 88 88 S 9 15 29.90 1013 10 16 0.05 1.27
4:54 am 04:54 Cloudy 76 24.4 72 22.2 88 88 S 9 15 29.91 1013 10 16 0.00 0.00
5:32 am 05:32 Cloudy 76 24.4 72 22.2 88 88 S 9 15 29.91 1013 10 16 0.00 0.00
5:54 am 05:54 Cloudy 76 24.4 72 22.2 88 88 SSW 9 15 29.92 1013 10 16 0.00 0.00
6:54 am 06:54 Cloudy 77 25 72 22.2 85 85 VRB 7 11 29.94 1014 10 16 0.00 0.00
7:40 am 07:40 Mostly Cloudy 77 25 72 22.2 85 85 SSW 9 15 29.95 1014 10 16 0.00 0.00
7:51 am 07:51 Mostly Cloudy 79 26 72 22 79 79 SSW 8 13 29.95 1014 10 16 0.00 0.00
7:54 am 07:54 Mostly Cloudy 78 25.6 73 22.8 85 85 SSW 9 15 29.96 1014 10 16 0.00 0.00
8:06 am 08:06 Mostly Cloudy 79 26.1 73 22.8 82 82 SW 10 17 29.96 1015 9 14 0.00 0.00
8:54 am 08:54 Mostly Cloudy 79 26.1 73 22.8 82 82 S 8 13 29.97 1015 10 16 0.00 0.00
9:54 am 09:54 Mostly Cloudy 81 27.2 73 22.8 77 77 SW 12 19 29.97 1015 10 16 0.00 0.00
10:15 am 10:15 Cloudy with Haze 77 25 69 20.6 77 77 W 12 19 29.98 1015 5 8 0.00 0.00
10:32 am 10:32 Cloudy with Rain 73 22.8 68 20 84 84 W 8 13 29.99 1016 3 4 0.05 1.27
10:39 am 10:39 Cloudy with Light Rain 73 22.8 68 20 84 84 W 7 11 29.99 1016 6 10 0.05 1.27
10:54 am 10:54 Cloudy with Light Rain 72 22.2 68 20 87 87 W 8 13 30.00 1016 6 10 0.06 1.52
11:11 am 11:11 Cloudy with Rain 71 21.7 67 19.4 87 87 WSW 7 11 30.00 1016 3 4 0.03 0.76
11:15 am 11:15 Cloudy with Heavy Rain 70 21.1 68 20 93 93 SSW 7 11 30.02 1016 2 2 0.09 2.29
11:23 am 11:23 Cloudy with Strong Thunderstorms 70 21.1 68 20 93 93 S 9 15 30.02 1016 2 2 0.34 8.64
11:43 am 11:43 Mostly Cloudy with Thunderstorms 71 21.7 68 20 90 90 SSW 6 9 30.01 1016 3 5 0.68 17.27
11:54 am 11:54 Mostly Cloudy with Light Rain 72 22.2 69 20.6 91 91 SW 5 7 30.01 1016 8 13 0.69 17.53
11:59 am 11:59 Mostly Cloudy 73 22.8 69 20.6 87 87 SW 3 6 30.00 1016 10 16 0.00 0.00
12:54 pm 12:54 Mostly Cloudy 78 25.6 72 22.2 82 82 S 3 6 30.01 1016 10 16 0.00 0.00
1:54 pm 13:54 Mostly Cloudy 84 28.9 66 18.9 55 55 NW 7 11 30.01 1016 10 16 0.00 0.00
2:54 pm 14:54 Mostly Cloudy 84 28.9 64 17.8 51 51 NW 10 17 30.01 1016 10 16 0.00 0.00
3:54 pm 15:54 Mostly Cloudy 85 29.4 64 17.8 50 50 NW 8 13 30.02 1017 10 16 0.00 0.00
4:54 pm 16:54 Cloudy 84 28.9 62 16.7 48 48 W 9 15 30.01 1016 10 16 0.00 0.00
5:54 pm 17:54 Mostly Cloudy 83 28.3 63 17.2 51 51 WNW 8 13 30.02 1017 10 16 0.00 0.00
6:54 pm 18:54 Mostly Cloudy 85 29.4 62 16.7 46 46 WNW 8 13 30.02 1017 10 16 0.00 0.00
7:54 pm 19:54 Mostly Cloudy 81 27.2 61 16.1 51 51 NW 5 7 30.04 1017 10 16 0.00 0.00
8:54 pm 20:54 Mostly Cloudy 79 26.1 63 17.2 58 58 WNW 3 6 30.06 1018 10 16 0.00 0.00
9:54 pm 21:54 Mostly Cloudy 78 25.6 62 16.7 58 58 Calm 30.08 1019 10 16 0.00 0.00
10:54 pm 22:54 Mostly Cloudy 75 23.9 65 18.3 71 71 WNW 5 7 30.08 1019 10 16 0.00 0.00
11:54 pm 23:54 Mostly Cloudy 77 25 57 13.9 50 50 NW 10 17 30.09 1019 10 16 0.00 0.00

Powered by AerisWeather